This demonstration page uses our WeatherBlox Daily Observations layout. Learn more.

Left ArrowRight Arrow

41.55636, -103.73856

Hourly Observations for January 8, 2015

Temp ( °F °C ) Dew Point ( °F °C ) Humidity (%) Winds ( mph kmh ) Pressure ( in mb ) Visibility ( mi km ) Precip ( " mm )
12:53 am 00:53 Clear 15 -9.4 12 -11.1 88 88 WNW 7 11 30.18 1022 9 14 0.00 0.00
1:53 am 01:53 Partly Cloudy 15 -9.4 12 -11.1 88 88 NW 7 11 30.19 1022 9 14 0.00 0.00
2:53 am 02:53 Clear 17 -8.3 13 -10.6 84 84 NW 3 6 30.13 1020 9 14 0.00 0.00
3:34 am 03:34 Partly Cloudy 23 -5 18 -8 80 80 NNW 14 22 30.15 1021 10 16 0.00 0.00
3:53 am 03:53 Mostly Clear 26 -3.3 19 -7.2 75 75 NW 14 22 30.07 1018 10 16 0.00 0.00
4:53 am 04:53 Clear 20 -6.7 15 -9.4 81 81 NW 8 13 30.12 1020 9 14 0.00 0.00
5:53 am 05:53 Clear 20 -6.7 15 -9.4 81 81 NNW 9 15 30.13 1020 10 16 0.00 0.00
6:53 am 06:53 Clear 24 -4.4 18 -7.8 77 77 NNE 13 20 30.17 1022 10 16 0.00 0.00
7:53 am 07:53 Sunny 25 -3.9 19 -7.2 78 78 WNW 9 15 30.19 1022 10 16 0.00 0.00
8:53 am 08:53 Sunny 31 -0.6 23 -5 72 72 WNW 13 20 30.19 1022 10 16 0.00 0.00
9:53 am 09:53 Mostly Cloudy 38 3.3 29 -1.7 70 70 WNW 12 19 30.18 1022 10 16 0.00 0.00
10:53 am 10:53 Mostly Sunny 40 4.4 30 -1.1 68 68 WNW 14 22 30.20 1023 10 16 0.00 0.00
11:53 am 11:53 Sunny 40 4.4 30 -1.1 68 68 NNW 20 31 30.19 1022 10 16 0.00 0.00
12:21 pm 12:21 Mostly Cloudy 39 3.9 30 -1.1 70 70 NNW 15 24 30.15 1021 10 16 0.00 0.00
12:53 pm 12:53 Cloudy 39 3.9 30 -1.1 70 70 NNW 28 44 30.20 1023 10 16 0.00 0.00
1:53 pm 13:53 Cloudy 37 2.8 30 -1.1 76 76 NNW 15 24 30.24 1024 10 16 0.00 0.00
2:08 pm 14:08 Cloudy 37 3 30 -1 75 75 N 21 33 30.21 1023 10 16 0.00 0.00
2:53 pm 14:53 Cloudy 31 -0.6 24 -4.4 76 76 N 25 41 30.34 1028 10 16 0.00 0.00
3:53 pm 15:53 Cloudy 26 -3.3 16 -8.9 66 66 NNW 28 44 30.41 1030 10 16 0.00 0.00
4:53 pm 16:53 Cloudy 24 -4.4 15 -9.4 68 68 NW 24 39 30.48 1032 10 16 0.00 0.00
5:53 pm 17:53 Cloudy 21 -6.1 11 -11.7 65 65 NNW 25 41 30.51 1033 10 16 0.00 0.00
6:53 pm 18:53 Cloudy 19 -7.2 10 -12.2 68 68 NW 23 37 30.53 1034 10 16 0.00 0.00
7:53 pm 19:53 Cloudy 18 -7.8 8 -13.3 65 65 NNW 23 37 30.54 1034 10 16 0.00 0.00
8:53 pm 20:53 Cloudy 17 -8.3 6 -14.4 62 62 NW 24 39 30.57 1035 10 16 0.00 0.00
9:53 pm 21:53 Cloudy 16 -8.9 7 -13.9 67 67 NW 21 33 30.56 1035 10 16 0.00 0.00
10:53 pm 22:53 Cloudy 15 -9.4 5 -15 64 64 NW 20 31 30.57 1035 10 16 0.00 0.00
11:53 pm 23:53 Clear 12 -11.1 3 -16.1 67 67 NW 14 22 30.59 1036 10 16 0.00 0.00

Powered by AerisWeather